EW8775 Weather Reports


Display with metric or nautical units.
time (UTC)temp
F
wind
direction
speed
MPH
gust
MPH
rain 1hr
in
rain 24hr
in
rain mn
in
humidity
%
barometer
mb
20260507200017 71 180 2.0 8.0 0.00 0.00 0.00 25 1017.8
20260507193017 69 180 3.0 9.0 0.00 0.00 0.00 27 1018.1
20260507190017 68 180 4.0 12.0 0.00 0.00 0.00 24 1018.4
20260507183057 66 203 5.0 12.0 0.00 0.00 0.00 26 1018.5
20260507180017 64 180 4.0 13.0 0.00 0.00 0.00 26 1018.6
20260507173057 61 203 1.0 6.0 0.00 0.00 0.00 37 1018.9
20260507170017 58 0.0 3.0 0.00 0.00 0.00 43 1018.4
20260507163017 56 0.0 3.0 0.00 0.00 0.00 43 1018.5
20260507160057 55 0.0 1.0 0.00 0.00 0.00 44 1018.9
20260507153017 53 0.0 3.0 0.00 0.00 0.00 43 1019.0
20260507150017 52 0.0 2.0 0.00 0.00 0.00 47 1019.6
20260507143016 50 0.0 2.0 0.00 0.00 0.00 47 1019.4
20260507140056 48 0.0 2.0 0.00 0.00 0.00 54 1019.5
20260507133016 46 158 3.0 9.0 0.00 0.00 0.00 57 1019.1
20260507130017 48 23 2.0 4.0 0.00 0.00 0.00 51 1019.2
20260507123017 45 45 1.0 4.0 0.00 0.00 0.00 55 1018.2
20260507120016 45 45 1.0 5.0 0.00 0.00 0.00 57 1018.8
20260507113016 46 68 1.0 4.0 0.00 0.00 0.00 51 1018.3
20260507110056 47 45 1.0 3.0 0.00 0.01 0.00 53 1018.5
20260507103016 46 45 1.0 3.0 0.00 0.01 0.00 56 1018.7
20260507100016 47 68 1.0 3.0 0.00 0.01 0.00 50 1019.1
20260507093016 47 68 2.0 4.0 0.00 0.01 0.00 46 1019.1
20260507090016 47 68 2.0 3.0 0.00 0.12 0.00 44 1019.2
20260507083016 48 45 2.0 3.0 0.00 0.12 0.00 47 1019.6
20260507080016 49 45 1.0 3.0 0.00 0.12 0.00 44 1019.7
20260507073016 51 23 1.0 4.0 0.00 0.12 0.00 41 1020.2
20260507070015 52 113 1.0 6.0 0.00 0.13 0.00 38 1019.9
20260507063015 52 90 2.0 4.0 0.00 0.14 0.00 38 1019.8
20260507060015 53 113 2.0 7.0 0.00 0.14 0.14 37 1019.7
20260507053016 53 113 3.0 7.0 0.00 0.14 0.14 37 1019.3
20260507050116 53 113 3.0 9.0 0.00 0.14 0.14 36 1019.3
20260507043056 53 113 3.0 7.0 0.00 0.14 0.14 36 1018.4
20260507040016 53 90 2.0 5.0 0.00 0.14 0.14 36 1018.1
20260507033016 54 90 3.0 7.0 0.00 0.14 0.14 36 1017.3
20260507030017 55 90 2.0 6.0 0.00 0.14 0.14 36 1017.2
20260507023016 58 0.0 4.0 0.00 0.14 0.14 30 1017.3
20260507020016 60 315 3.0 9.0 0.00 0.14 0.14 29 1017.5
20260507013016 60 338 3.0 11.0 0.00 0.14 0.14 27 1017.8
20260507010016 61 315 5.0 14.0 0.00 0.14 0.14 29 1018.2
20260507003016 60 338 8.0 18.0 0.00 0.14 0.14 28 1018.1
20260507000016 60 315 8.0 17.0 0.00 0.14 0.14 29 1018.2
20260506233016 61 338 8.0 18.0 0.00 0.14 0.14 29 1018.1
20260506230016 61 338 9.0 21.0 0.00 0.14 0.14 29 1018.0
20260506223016 61 315 9.0 19.0 0.00 0.14 0.14 29 1018.2
20260506220016 61 338 8.0 18.0 0.00 0.14 0.14 30 1018.7
20260506213015 60 315 6.0 19.0 0.00 0.14 0.14 29 1019.1
20260506210017 60 315 6.0 17.0 0.00 0.14 0.14 27 1018.7
20260506203017 59 315 5.0 16.0 0.00 0.14 0.14 30 1018.8